Temp
-4 -4 -4 -4 -4 -5 -5 -5 -5 -5 -4 -4 -4 -5 -5 -5 -5 -6 -6 -6 -6 -7 -7 -7 -7 -7 -7 -7 -7 -7 -7 -8 -8 -8 -8 -8 -8 -8 -8 -8 -8 -9 -9 -9 -9 -9 -8 -9 -8
-4 -4 -4 -4 -4 -5 -5 -5 -5 -5 -4 -5 -5 -5 -5 -5 -5 -6 -6 -6 -6 -7 -7 -7 -7 -7 -7 -7 -7 -7 -7 -8 -8 -8 -8 -8 -8 -8 -9 -9 -9 -9 -9 -9 -9 -9 -9 -9 -8
-4 -4 -4 -4 -4 -4 -4 -4 -4 -4 -4 -4 -5 -5 -5 -5 -5 -6 -6 -6 -6 -7 -7 -7 -7 -7 -7 -7 -7 -7 -7 -8 -8 -8 -8 -8 -8 -8 -9 -9 -9 -9 -9 -10 -9 -9 -9 -8 -8
-4 -4 -4 -4 -4 -4 -4 -4 -4 -5 -4 -4 -5 -5 -5 -5 -5 -5 -6 -6 -6 -7 -7 -6 -7 -7 -7 -7 -7 -7 -7 -8 -8 -8 -9 -9 -8 -8 -9 -9 -9 -9 -9 -10 -10 -9 -9 -8 -8
-4 -4 -4 -4 -4 -4 -4 -4 -4 -5 -5 -4 -4 -5 -5 -5 -5 -5 -6 -6 -6 -6 -6 -7 -7 -7 -7 -7 -7 -7 -7 -8 -8 -8 -9 -9 -9 -8 -8 -9 -9 -9 -9 -9 -10 -9 -9 -9 -9
-4 -4 -4 -4 -4 -5 -5 -5 -4 -5 -5 -5 -4 -5 -4 -5 -5 -5 -5 -6 -6 -6 -6 -7 -7 -8 -7 -7 -7 -7 -7 -8 -8 -8 -8 -8 -8 -8 -8 -9 -9 -9 -9 -9 -9 -9 -9 -9 -9
-4 -3 -4 -5 -5 -5 -5 -5 -5 -5 -5 -5 -5 -5 -4 -5 -5 -5 -5 -6 -6 -6 -6 -7 -7 -8 -7 -7 -7 -7 -8 -8 -8 -8 -8 -8 -8 -8 -8 -9 -9 -9 -9 -9 -9 -9 -9 -9 -9
-4 -4 -4 -4 -5 -5 -5 -5 -6 -5 -6 -6 -5 -4 -4 -4 -5 -6 -5 -6 -6 -6 -6 -7 -7 -8 -7 -7 -7 -8 -8 -8 -8 -8 -8 -8 -8 -8 -8 -9 -9 -9 -9 -9 -9 -9 -9 -8 -8
-3 -4 -4 -4 -4 -5 -5 -5 -6 -6 -5 -6 -5 -5 -4 -4 -5 -5 -5 -6 -6 -6 -6 -7 -7 -8 -8 -8 -7 -7 -8 -8 -8 -8 -8 -8 -8 -8 -8 -9 -9 -9 -9 -9 -9 -9 -8 -8 -8
-4 -4 -4 -4 -4 -4 -4 -5 -5 -6 -6 -5 -5 -5 -5 -4 -4 -5 -5 -6 -6 -6 -6 -7 -7 -8 -7 -7 -8 -8 -8 -8 -8 -8 -8 -8 -8 -8 -8 -8 -9 -9 -9 -9 -9 -9 -9 -8 -8
-5 -4 -6 -5 -4 -4 -4 -4 -5 -6 -6 -5 -5 -5 -5 -5 -4 -5 -5 -5 -6 -6 -6 -7 -7 -7 -7 -7 -7 -8 -8 -8 -8 -8 -8 -8 -8 -8 -8 -8 -9 -9 -9 -9 -9 -9 -9 -8 -9
-5 -5 -5 -4 -4 -4 -4 -5 -5 -5 -5 -6 -5 -5 -5 -5 -5 -5 -5 -5 -5 -6 -6 -7 -7 -6 -6 -8 -6 -7 -8 -8 -7 -8 -8 -8 -8 -8 -8 -8 -8 -9 -9 -9 -9 -9 -9 -8 -8
-5 -5 -4 -4 -4 -4 -5 -5 -5 -5 -5 -5 -5 -5 -5 -5 -5 -4 -5 -5 -6 -6 -6 -6 -6 -6 -7 -6 -5 -7 -7 -8 -8 -8 -7 -7 -7 -7 -7 -8 -8 -8 -9 -9 -8 -8 -8 -8 -8
-6 -6 -5 -4 -4 -5 -5 -5 -5 -5 -5 -5 -5 -5 -5 -5 -5 -5 -5 -6 -5 -5 -6 -6 -7 -6 -7 -6 -6 -8 -8 -7 -7 -7 -7 -7 -7 -7 -7 -7 -8 -9 -9 -8 -9 -8 -7 -8 -8
-7 -5 -6 -4 -4 -4 -4 -5 -5 -5 -5 -5 -5 -5 -5 -5 -5 -5 -5 -6 -5 -6 -6 -6 -7 -6 -7 -7 -7 -7 -4 -7 -6 -6 -7 -6 -6 -7 -7 -7 -8 -8 -8 -8 -9 -8 -8 -8 -8
-6 -7 -7 -5 -5 -5 -4 -5 -5 -5 -5 -5 -5 -5 -5 -5 -5 -5 -5 -6 -5 -6 -6 -5 -6 -6 -6 -7 -7 -7 -7 -7 -7 -6 -6 -6 -6 -7 -7 -7 -7 -7 -8 -8 -8 -8 -8 -8 -8
-6 -6 -6 -6 -6 -5 -4 -5 -5 -5 -5 -5 -6 -5 -5 -5 -5 -5 -5 -5 -5 -5 -6 -5 -6 -6 -6 -7 -7 -7 -6 -6 -6 -6 -6 -6 -6 -6 -7 -7 -7 -7 -7 -7 -8 -7 -7 -7 -7
-6 -6 -7 -7 -5 -5 -5 -5 -5 -5 -5 -5 -5 -5 -5 -5 -5 -5 -5 -5 -5 -5 -6 -5 -5 -6 -6 -6 -7 -7 -7 -6 -6 -7 -6 -6 -6 -6 -7 -7 -7 -7 -7 -7 -7 -7 -7 -7 -7
-8 -8 -6 -6 -6 -5 -6 -5 -5 -5 -5 -7 -5 -5 -5 -5 -5 -5 -5 -5 -5 -5 -5 -5 -5 -6 -6 -6 -6 -6 -6 -6 -6 -6 -5 -6 -6 -6 -6 -7 -7 -7 -7 -7 -7 -7 -7 -7 -7
-7 -7 -7 -6 -5 -5 -5 -5 -6 -5 -5 -6 -6 -5 -5 -5 -5 -5 -5 -5 -5 -5 -5 -5 -5 -5 -6 -6 -6 -6 -6 -6 -6 -6 -6 -6 -6 -6 -6 -7 -7 -7 -7 -7 -7 -7 -7 -7 -7
-7 -8 -7 -6 -6 -5 -5 -6 -5 -5 -5 -5 -7 -6 -5 -5 -5 -5 -4 -5 -5 -5 -5 -5 -5 -5 -5 -5 -6 -6 -7 -6 -6 -6 -6 -6 -6 -6 -6 -6 -6 -7 -7 -7 -7 -7 -7 -7 -7
-7 -7 -7 -7 -6 -6 -5 -6 -6 -6 -5 -4 -7 -7 -6 -6 -6 -5 -4 -4 -5 -5 -5 -5 -5 -5 -5 -5 -6 -6 -6 -5 -6 -6 -6 -6 -6 -6 -6 -6 -6 -6 -6 -7 -7 -7 -7 -7 -7
-7 -8 -8 -8 -8 -7 -5 -6 -6 -5 -5 -5 -6 -6 -6 -6 -6 -5 -5 -4 -4 -4 -5 -5 -5 -5 -4 -5 -5 -6 -5 -6 -6 -6 -6 -6 -6 -6 -6 -6 -6 -6 -6 -6 -7 -7 -7 -7 -7
-8 -9 -9 -8 -8 -9 -7 -7 -6 -6 -5 -6 -6 -6 -5 -6 -6 -5 -5 -5 -4 -4 -5 -5 -5 -5 -5 -5 -5 -5 -6 -7 -6 -7 -6 -5 -5 -6 -6 -6 -6 -6 -6 -6 -6 -7 -7 -7 -7
-10 -9 -9 -9 -9 -9 -8 -7 -7 -6 -5 -5 -6 -6 -5 -5 -6 -6 -5 -5 -5 -5 -5 -5 -5 -5 -5 -4 -5 -5 -6 -6 -6 -6 -6 -5 -5 -5 -6 -6 -6 -6 -6 -6 -6 -6 -7 -7 -7
-11 -10 -9 -9 -9 -8 -8 -8 -6 -6 -7 -6 -7 -6 -6 -6 -7 -5 -5 -6 -6 -5 -6 -6 -6 -6 -5 -5 -4 -4 -5 -6 -6 -5 -6 -5 -5 -5 -6 -6 -6 -6 -6 -6 -6 -6 -6 -7 -7
-11 -10 -9 -9 -8 -8 -8 -7 -7 -7 -7 -8 -7 -7 -6 -6 -6 -5 -6 -6 -6 -6 -6 -7 -6 -6 -6 -5 -5 -5 -4 -5 -5 -5 -4 -4 -6 -7 -6 -6 -6 -5 -6 -6 -6 -6 -6 -6 -6
-10 -11 -9 -10 -9 -7 -7 -7 -7 -7 -8 -8 -9 -7 -6 -6 -6 -5 -5 -5 -7 -6 -7 -7 -6 -6 -6 -5 -5 -5 -5 -4 -5 -5 -4 -5 -6 -6 -7 -6 -6 -5 -6 -6 -6 -5 -5 -5 -6
-10 -9 -9 -10 -9 -9 -9 -8 -8 -7 -8 -7 -8 -8 -7 -7 -6 -6 -6 -7 -7 -7 -6 -5 -6 -6 -6 -6 -5 -5 -5 -5 -5 -5 -5 -4 -5 -5 -6 -6 -5 -4 -5 -6 -6 -5 -5 -5 -5
-11 -11 -10 -10 -8 -10 -9 -8 -8 -8 -8 -8 -7 -7 -8 -7 -7 -6 -6 -6 -7 -7 -7 -5 -7 -5 -5 -5 -5 -5 -5 -5 -6 -5 -5 -5 -4 -4 -4 -4 -5 -5 -6 -6 -5 -5 -5 -5 -5
Height
5885 5884 5881 5878 5882 5883 5883 5887 5886 5888 5888 5888 5889 5889 5889 5890 5891 5892 5891 5891 5891 5891 5892 5893 5892 5893 5893 5893 5892 5892 5892 5892 5891 5891 5891 5892 5893 5893 5894 5895 5896 5896 5897 5898 5900 5902 5903 5904 5904
5886 5884 5882 5879 5881 5883 5885 5886 5889 5889 5890 5890 5888 5888 5892 5891 5892 5893 5893 5893 5893 5894 5894 5895 5894 5894 5895 5894 5894 5893 5894 5893 5892 5893 5894 5894 5894 5896 5897 5898 5899 5899 5900 5902 5904 5905 5906 5907 5907
5887 5885 5884 5876 5880 5884 5887 5888 5890 5891 5892 5892 5893 5893 5893 5893 5894 5895 5896 5896 5896 5896 5896 5897 5896 5896 5896 5896 5895 5894 5894 5894 5893 5894 5896 5896 5897 5898 5900 5901 5902 5903 5904 5905 5907 5909 5909 5910 5911
5888 5890 5887 5885 5884 5887 5891 5891 5892 5892 5893 5894 5894 5894 5895 5896 5895 5897 5898 5898 5898 5898 5898 5899 5899 5898 5898 5898 5897 5897 5896 5895 5896 5896 5897 5899 5900 5901 5903 5905 5906 5907 5908 5908 5910 5912 5912 5913 5914
5890 5889 5889 5884 5889 5891 5892 5893 5894 5894 5895 5895 5896 5897 5897 5898 5898 5899 5900 5900 5900 5901 5901 5901 5901 5901 5900 5900 5899 5899 5899 5899 5899 5899 5900 5901 5902 5904 5905 5907 5909 5910 5911 5912 5912 5915 5916 5916 5917
5890 5891 5891 5892 5892 5893 5893 5894 5896 5896 5897 5897 5898 5898 5899 5899 5899 5901 5902 5901 5902 5903 5902 5903 5903 5903 5902 5902 5902 5902 5901 5901 5901 5902 5903 5904 5905 5907 5908 5910 5911 5913 5915 5916 5917 5918 5920 5920 5921
5892 5893 5890 5893 5893 5893 5894 5896 5897 5898 5898 5899 5900 5900 5901 5901 5901 5902 5904 5904 5904 5904 5904 5904 5904 5905 5905 5906 5906 5906 5905 5905 5905 5906 5907 5908 5908 5909 5911 5913 5914 5916 5917 5919 5920 5921 5922 5924 5924
5892 5894 5894 5893 5894 5895 5895 5896 5898 5898 5899 5901 5900 5901 5903 5904 5903 5904 5906 5904 5905 5905 5906 5906 5907 5908 5910 5910 5910 5910 5910 5910 5910 5910 5910 5910 5909 5912 5914 5916 5917 5919 5920 5921 5923 5924 5925 5927 5927
5890 5892 5891 5893 5894 5894 5894 5895 5895 5899 5901 5901 5902 5902 5905 5905 5905 5905 5908 5906 5906 5907 5908 5909 5910 5911 5911 5911 5912 5914 5914 5914 5914 5914 5914 5914 5914 5915 5917 5919 5920 5922 5923 5924 5926 5927 5928 5929 5930
5886 5881 5886 5890 5893 5893 5893 5893 5894 5897 5900 5902 5902 5903 5905 5907 5908 5907 5908 5909 5909 5910 5911 5912 5913 5911 5913 5914 5913 5913 5916 5918 5917 5918 5917 5917 5918 5919 5920 5921 5923 5925 5926 5928 5928 5929 5930 5931 5932
5883 5879 5888 5888 5892 5893 5893 5892 5894 5896 5899 5901 5902 5905 5905 5908 5909 5910 5911 5911 5911 5914 5914 5914 5914 5912 5912 5916 5916 5915 5918 5918 5920 5921 5921 5922 5921 5922 5923 5924 5925 5926 5928 5929 5929 5928 5930 5932 5934
5887 5887 5888 5890 5891 5891 5892 5893 5893 5896 5897 5901 5903 5904 5906 5908 5910 5912 5912 5913 5914 5915 5919 5918 5916 5914 5906 5907 5921 5916 5918 5920 5920 5923 5924 5925 5925 5925 5926 5926 5928 5929 5930 5931 5929 5931 5932 5933 5936
5887 5887 5889 5889 5890 5890 5890 5893 5894 5895 5896 5901 5902 5904 5907 5909 5911 5913 5914 5914 5917 5918 5920 5920 5918 5916 5905 5889 5917 5921 5923 5922 5922 5924 5926 5928 5928 5928 5928 5929 5930 5930 5931 5931 5929 5930 5932 5936 5938
5886 5889 5887 5889 5889 5890 5891 5891 5894 5894 5896 5900 5903 5904 5907 5910 5911 5914 5916 5917 5917 5919 5921 5922 5922 5921 5920 5921 5922 5924 5927 5920 5922 5925 5928 5930 5931 5931 5931 5932 5932 5932 5932 5931 5933 5935 5936 5939 5940
5886 5887 5887 5887 5888 5890 5891 5890 5890 5892 5894 5900 5902 5904 5906 5910 5911 5914 5917 5919 5921 5922 5923 5925 5925 5925 5923 5921 5923 5922 5924 5926 5925 5928 5929 5932 5933 5934 5934 5935 5935 5935 5935 5934 5935 5936 5941 5943 5945
5882 5886 5887 5885 5888 5888 5890 5890 5888 5890 5893 5899 5901 5903 5905 5908 5911 5914 5917 5919 5922 5923 5924 5925 5926 5927 5926 5922 5925 5929 5934 5925 5930 5932 5932 5933 5935 5936 5938 5938 5939 5939 5939 5939 5938 5942 5944 5947 5948
5880 5883 5888 5886 5887 5889 5889 5888 5889 5890 5894 5897 5901 5903 5905 5907 5910 5914 5917 5919 5921 5924 5925 5927 5928 5928 5928 5927 5925 5929 5929 5931 5935 5933 5935 5937 5938 5939 5941 5941 5942 5943 5943 5944 5946 5946 5948 5950 5952
5880 5884 5887 5888 5885 5887 5888 5888 5886 5891 5891 5896 5900 5903 5904 5906 5909 5912 5915 5919 5922 5924 5926 5927 5929 5931 5931 5932 5930 5931 5933 5935 5932 5932 5935 5939 5941 5942 5943 5944 5945 5946 5948 5949 5949 5950 5953 5955 5957
5880 5886 5885 5887 5881 5886 5888 5889 5888 5889 5890 5896 5900 5903 5904 5906 5908 5910 5914 5918 5921 5924 5926 5928 5930 5932 5933 5933 5932 5932 5934 5936 5937 5936 5938 5942 5944 5944 5943 5945 5948 5950 5951 5952 5954 5956 5956 5958 5959
5873 5875 5884 5875 5876 5884 5886 5886 5886 5887 5888 5893 5898 5903 5905 5906 5908 5911 5914 5917 5921 5924 5926 5929 5931 5933 5933 5933 5939 5938 5936 5937 5940 5942 5944 5946 5946 5946 5947 5949 5951 5951 5953 5955 5956 5958 5960 5961 5961
5870 5877 5877 5870 5872 5879 5882 5880 5883 5886 5888 5889 5893 5898 5903 5906 5909 5910 5913 5916 5919 5923 5926 5929 5931 5934 5933 5935 5938 5938 5939 5936 5938 5943 5947 5947 5948 5949 5949 5951 5952 5953 5955 5956 5958 5960 5962 5964 5964
5869 5879 5866 5869 5869 5876 5884 5886 5883 5882 5883 5865 5891 5896 5902 5905 5909 5909 5911 5914 5917 5921 5925 5929 5931 5934 5935 5934 5937 5940 5941 5938 5940 5942 5947 5949 5950 5951 5952 5952 5954 5955 5956 5958 5959 5961 5963 5964 5966
5865 5873 5869 5875 5873 5869 5878 5882 5885 5883 5860 5872 5882 5897 5901 5904 5906 5909 5911 5914 5917 5920 5924 5929 5931 5934 5936 5936 5931 5937 5942 5944 5947 5945 5948 5950 5951 5952 5953 5955 5956 5958 5959 5960 5962 5963 5966 5967 5969
5859 5863 5867 5869 5874 5871 5875 5882 5878 5878 5878 5880 5889 5896 5900 5902 5905 5908 5911 5912 5916 5920 5923 5927 5931 5934 5936 5937 5935 5935 5941 5940 5940 5941 5949 5950 5950 5952 5953 5955 5957 5959 5961 5963 5963 5965 5966 5968 5969
5852 5859 5864 5868 5870 5874 5876 5879 5874 5878 5882 5886 5885 5894 5897 5897 5901 5906 5908 5912 5914 5919 5922 5925 5929 5932 5935 5937 5938 5939 5936 5940 5932 5944 5948 5951 5952 5952 5953 5954 5956 5958 5960 5963 5965 5966 5968 5969 5970
5848 5854 5862 5866 5871 5877 5874 5869 5866 5872 5878 5877 5882 5891 5895 5895 5897 5900 5907 5908 5910 5915 5919 5922 5925 5929 5933 5936 5938 5942 5941 5939 5944 5942 5950 5954 5954 5953 5954 5958 5957 5958 5961 5963 5966 5967 5969 5971 5972
5842 5847 5859 5869 5872 5878 5870 5864 5865 5868 5875 5876 5884 5890 5892 5895 5900 5889 5897 5904 5907 5906 5914 5920 5921 5925 5930 5934 5935 5939 5944 5945 5947 5948 5950 5952 5949 5953 5955 5954 5960 5960 5960 5963 5966 5968 5970 5972 5973
5831 5845 5853 5854 5861 5871 5866 5867 5862 5869 5875 5879 5883 5888 5891 5895 5896 5896 5898 5904 5907 5907 5913 5915 5917 5920 5925 5929 5934 5936 5940 5944 5947 5948 5950 5951 5948 5949 5944 5959 5960 5963 5961 5963 5966 5969 5971 5972 5973
5833 5838 5843 5851 5860 5864 5859 5858 5856 5857 5870 5875 5881 5882 5886 5890 5894 5896 5897 5897 5902 5903 5903 5904 5912 5909 5917 5922 5928 5934 5936 5940 5944 5946 5949 5951 5951 5951 5954 5955 5965 5963 5961 5962 5965 5969 5971 5972 5973
5827 5833 5841 5844 5851 5855 5849 5848 5851 5857 5866 5868 5873 5878 5882 5886 5889 5892 5889 5894 5895 5898 5900 5896 5908 5901 5914 5919 5923 5929 5932 5937 5940 5942 5946 5947 5954 5958 5960 5962 5963 5962 5961 5962 5964 5967 5969 5971 5973
Wind_Speed
7 11 9 12 4 11 14 11 11 7 8 9 9 9 10 9 10 13 10 10 10 10 11 11 11 11 11 11 10 8 6 6 7 7 8 11 10 9 10 11 13 15 16 16 16 15 15 15 15
8 11 10 9 18 12 14 12 9 8 8 10 11 10 8 10 10 11 11 9 9 10 10 10 12 13 12 10 10 9 6 6 8 9 9 10 10 9 10 11 12 14 14 14 14 14 13 14 15
9 12 13 12 20 12 12 14 10 10 8 9 8 7 9 9 8 9 9 9 9 9 9 10 10 11 10 10 9 8 6 5 7 10 10 9 9 10 10 11 11 12 12 12 13 15 14 14 13
10 8 8 10 9 7 9 9 12 11 9 9 11 9 9 7 10 7 8 9 8 8 8 9 10 9 10 10 10 10 9 7 8 9 10 11 9 10 11 11 11 11 10 8 7 14 15 13 13
7 8 7 4 4 4 4 10 11 9 6 7 9 9 9 8 8 7 8 9 7 8 9 9 9 9 10 11 11 13 13 12 12 12 12 11 10 10 12 12 11 12 13 15 14 17 19 13 13
7 7 8 7 2 4 8 10 7 9 7 5 7 9 8 8 9 7 9 9 8 8 8 8 9 9 11 12 13 14 14 14 14 13 12 11 9 9 12 13 12 13 15 19 19 16 14 13 14
8 5 5 5 3 1 10 11 11 9 9 7 6 8 8 7 9 7 9 9 9 9 8 8 8 9 10 11 12 12 13 14 14 14 12 10 8 10 13 14 13 14 14 16 13 11 12 12 13
9 4 4 4 4 4 8 12 14 11 10 7 6 9 9 7 8 8 9 7 9 9 8 7 8 9 9 11 10 11 13 14 14 14 13 13 12 16 15 15 15 15 13 14 12 13 9 10 11
10 7 7 2 1 6 7 14 23 15 11 11 7 10 9 9 8 8 10 8 7 9 8 8 9 9 9 11 11 10 13 14 14 14 14 15 17 17 17 16 15 15 13 12 12 11 10 10 9
16 11 11 5 2 5 6 8 24 20 14 11 9 11 10 9 8 7 7 9 7 7 10 10 9 10 12 10 11 11 11 13 13 13 14 15 15 15 15 15 14 12 11 10 10 10 10 8 7
15 7 2 2 4 6 5 7 22 22 18 13 12 10 12 9 8 7 7 7 7 7 9 13 8 10 11 10 12 12 10 13 13 13 15 14 16 14 14 13 12 11 10 11 9 11 12 9 10
14 10 8 7 7 7 6 11 16 23 21 15 11 11 13 12 10 10 8 7 8 9 8 9 8 8 6 21 9 10 10 12 14 12 14 14 16 15 13 12 11 10 9 8 5 8 13 12 13
16 14 12 9 6 3 4 12 20 23 19 17 12 10 13 12 12 12 10 7 9 10 7 8 10 9 12 7 8 11 7 12 14 13 16 14 12 13 12 10 11 10 11 12 12 9 12 14 16
16 4 14 9 7 6 4 9 16 26 20 18 14 14 15 14 13 12 11 9 6 7 7 8 11 10 10 8 7 6 8 16 16 14 14 14 13 11 11 12 13 15 14 13 17 16 15 17 17
17 12 14 12 10 8 5 10 10 30 25 20 17 16 16 16 13 12 12 10 7 8 8 8 8 10 7 8 9 15 15 13 13 15 14 13 11 12 12 13 15 16 14 12 15 16 16 17 19
20 18 10 13 9 11 5 5 11 26 28 22 19 17 18 18 15 12 12 10 8 8 8 8 7 9 7 4 8 9 12 12 9 14 15 12 11 11 13 14 15 18 16 15 19 17 17 18 21
19 14 9 21 15 12 12 13 15 20 24 24 20 18 19 18 17 14 13 11 10 8 8 8 6 7 8 5 5 11 13 15 13 16 15 11 12 13 13 15 16 18 17 15 19 20 20 18 19
15 13 13 16 15 14 16 18 23 17 28 26 23 20 19 19 19 17 14 12 10 9 9 9 7 5 8 8 6 8 10 10 12 12 16 13 11 12 13 14 15 17 16 15 19 20 18 16 16
10 9 21 16 25 16 15 16 12 17 32 27 24 20 18 19 20 19 16 13 11 10 10 9 8 6 8 7 7 9 10 9 8 6 10 11 12 13 14 14 13 15 15 16 16 16 16 16 15
27 25 23 21 24 22 19 16 15 22 32 26 22 21 19 18 17 17 17 15 14 12 9 10 10 8 8 7 6 7 4 9 7 7 8 10 11 13 12 12 12 13 13 13 13 13 11 12 13
27 18 28 33 29 27 20 12 18 13 23 24 29 24 20 17 16 15 18 17 15 14 11 10 10 10 8 6 7 8 8 10 9 6 5 8 9 10 11 11 10 11 11 11 11 10 11 10 11
32 25 28 22 23 23 16 14 12 16 19 33 27 13 15 16 20 16 18 20 18 17 14 10 11 12 10 6 9 8 5 5 7 10 7 8 8 9 9 10 9 9 10 11 10 9 11 11 9
38 16 13 16 23 28 20 20 18 21 14 25 16 16 14 16 16 17 16 18 19 18 16 14 11 12 11 10 7 5 5 10 5 7 7 7 8 8 10 8 8 9 9 10 11 12 9 9 7
35 38 24 26 22 24 21 15 27 24 23 16 17 18 17 15 14 16 16 16 18 19 17 15 14 13 13 12 11 6 4 7 6 6 2 4 7 7 8 8 7 8 8 8 8 10 9 8 9
36 36 29 32 23 21 27 26 32 29 27 25 26 18 17 21 20 15 13 14 16 16 19 18 16 16 14 14 14 10 8 7 13 8 5 3 5 5 6 8 7 7 7 7 7 6 7 7 7
35 36 21 26 24 18 25 31 38 36 35 17 30 23 20 20 26 16 12 14 18 16 19 20 20 19 18 17 16 16 14 11 7 2 6 10 8 6 6 5 6 7 7 6 7 6 5 6 6
33 44 30 14 14 17 33 40 37 30 29 29 18 24 23 18 16 14 8 22 23 18 20 22 25 23 22 21 18 18 17 15 12 10 9 10 9 6 9 9 5 5 5 4 4 6 8 7 6
35 32 37 32 29 26 34 37 43 37 26 25 24 29 29 24 21 24 24 20 18 29 32 25 27 26 26 23 20 19 18 17 15 13 10 10 11 10 6 4 5 6 5 4 3 4 5 6 7
40 34 43 28 19 27 24 33 40 46 39 35 31 27 26 27 24 22 25 25 22 27 36 31 29 27 29 28 24 21 20 18 17 16 14 13 10 7 1 4 10 9 6 5 4 5 6 7 7
42 33 36 34 37 29 33 32 42 36 29 27 34 33 29 29 29 28 30 28 29 21 20 33 36 33 29 29 25 25 22 20 19 18 17 17 12 11 8 10 11 7 5 6 7 7 7 7 8
Wind_Direction
57 23 22 42 113 123 110 123 114 111 91 117 144 113 117 96 120 110 103 102 95 89 85 85 88 85 81 76 70 65 79 117 134 125 114 106 124 104 101 94 93 93 94 94 95 96 100 104 102
57 41 66 96 120 107 129 122 139 117 108 124 148 133 129 133 120 109 106 92 91 81 74 83 88 90 78 60 53 51 73 113 139 140 137 120 116 119 109 97 90 93 97 96 97 100 100 105 100
72 58 93 110 135 149 143 138 137 114 115 132 126 162 125 127 114 119 112 102 84 82 79 82 85 83 77 61 44 43 72 100 141 146 138 119 108 106 106 98 91 90 99 104 116 103 103 99 99
81 88 78 73 87 118 122 154 140 126 103 132 138 136 138 140 122 123 113 101 91 86 88 88 89 71 61 50 57 63 73 107 133 136 132 120 108 104 113 110 103 91 93 78 120 120 103 99 100
109 85 89 47 88 138 146 161 161 161 135 118 139 144 141 135 116 115 111 95 85 79 72 84 86 71 57 62 63 71 84 101 117 129 131 127 113 108 115 114 105 90 94 82 111 118 105 104 102
125 103 105 127 158 166 176 180 164 157 174 163 150 154 147 143 126 118 106 97 84 78 74 78 69 57 59 71 67 71 80 90 100 111 119 122 117 115 114 115 111 102 100 99 107 105 100 106 105
155 106 145 105 135 208 193 185 171 169 163 170 161 167 160 154 130 125 110 98 84 83 74 71 63 57 68 79 74 79 84 90 93 99 107 110 128 126 117 122 114 107 102 106 104 119 97 102 102
174 165 206 133 189 195 235 233 182 186 174 176 166 179 169 171 138 130 112 110 100 92 83 72 71 74 83 91 83 86 93 95 94 95 97 93 102 128 126 125 122 122 117 112 108 115 108 105 102
169 294 222 128 262 239 266 237 178 175 190 175 192 178 190 173 161 148 125 117 97 95 76 72 79 92 104 109 100 92 94 99 98 98 100 100 106 116 121 124 120 116 115 113 108 112 106 102 102
184 260 164 141 267 278 271 248 196 180 185 182 186 178 184 194 182 169 141 143 106 84 83 78 99 108 106 105 118 108 96 95 98 97 102 103 108 110 112 115 114 112 111 112 116 121 111 113 105
208 299 228 198 254 265 257 214 214 180 183 175 188 188 178 199 192 181 154 134 115 103 95 115 107 104 94 99 95 107 108 104 98 95 104 112 110 109 110 112 113 116 120 115 126 133 126 115 111
201 247 222 236 277 281 259 208 197 188 186 168 190 190 186 186 188 188 175 163 124 87 108 109 111 77 135 126 116 102 124 124 104 99 100 102 103 106 108 109 108 108 116 100 132 119 119 120 114
206 232 218 247 284 246 211 208 209 201 169 177 178 190 195 191 189 198 182 179 136 136 116 112 105 77 37 37 68 102 101 118 116 110 110 97 94 103 105 99 98 96 103 121 125 110 102 119 119
198 233 240 222 235 215 225 224 206 216 182 176 181 179 191 194 190 207 189 183 162 126 111 115 108 91 101 107 94 81 91 112 120 127 114 105 100 89 93 90 90 98 111 129 125 123 137 128 126
202 198 239 222 214 209 213 210 220 213 188 182 183 188 183 195 192 207 198 187 181 149 130 121 111 105 101 105 99 97 78 87 108 143 125 117 108 99 94 93 88 87 95 111 97 118 127 127 118
203 201 229 257 237 229 231 207 214 216 212 182 190 189 187 192 191 201 204 188 190 167 141 133 127 108 99 89 86 101 110 75 103 133 130 122 113 106 106 104 91 81 90 108 114 118 119 122 118
208 205 192 236 260 236 233 230 228 195 187 184 192 193 192 190 189 198 199 197 188 179 152 146 149 123 115 104 69 89 98 120 123 119 126 123 115 115 116 111 101 93 91 100 106 108 115 116 117
192 166 238 256 237 229 237 241 210 231 186 185 190 195 190 189 189 194 197 195 192 177 169 157 155 133 120 117 97 81 102 111 119 121 123 118 121 110 109 110 107 102 100 103 104 111 110 110 112
151 173 210 213 251 234 233 232 212 237 180 186 193 191 191 190 192 193 195 192 193 182 178 164 155 145 132 130 131 111 98 91 107 70 105 121 118 105 116 111 116 115 113 109 111 112 105 106 116
175 198 224 227 224 229 222 235 212 222 194 183 194 200 199 195 192 195 198 195 192 193 184 169 158 161 157 160 119 106 78 104 112 125 129 130 118 111 105 109 121 124 125 125 122 122 120 113 119
183 215 221 210 222 229 219 241 221 195 195 199 187 193 201 198 197 196 203 202 198 201 196 172 175 169 175 158 145 173 168 127 117 106 130 128 125 119 118 111 117 118 131 140 140 133 135 131 128
184 176 238 224 242 237 219 219 208 217 214 179 200 182 204 204 203 200 208 206 203 206 206 187 187 181 176 186 165 168 160 132 142 128 128 125 130 131 125 122 122 127 125 129 141 145 139 144 146
169 204 223 214 253 240 214 221 196 207 249 163 165 194 210 209 206 206 213 212 208 213 209 204 203 199 181 182 212 185 152 156 130 121 122 128 126 130 136 133 137 136 138 132 134 133 140 139 129
180 197 218 197 214 243 239 263 247 196 219 224 200 212 208 207 206 214 215 220 216 220 218 211 214 217 199 184 203 222 185 193 142 124 161 167 135 135 142 138 141 134 147 146 141 140 147 141 147
195 185 204 218 212 219 250 261 256 245 189 198 216 213 221 204 199 213 219 235 229 220 226 223 218 221 219 202 197 200 217 215 185 167 155 238 186 145 148 148 150 144 143 157 148 148 145 154 140
206 181 206 217 217 215 235 255 256 250 240 206 191 200 205 219 200 199 220 235 209 227 221 230 225 225 225 217 207 202 202 230 232 216 213 209 195 172 167 171 155 153 162 164 150 154 159 161 148
211 193 187 205 212 211 228 248 252 256 251 265 222 201 207 214 217 217 254 235 234 215 232 220 230 227 227 225 214 211 208 205 211 223 245 230 239 170 220 173 179 159 142 155 173 168 164 170 170
185 205 183 192 214 208 234 244 257 257 263 270 253 223 206 217 226 232 229 241 248 251 239 233 224 226 229 228 224 219 219 213 209 216 231 239 247 234 155 176 188 196 159 162 196 212 201 191 179
206 209 187 193 206 212 230 231 240 247 249 259 249 244 235 237 231 235 234 247 252 246 232 214 228 221 224 224 225 225 224 226 223 220 222 234 246 269 277 250 218 203 183 178 204 232 238 233 219
209 209 203 192 189 203 220 224 239 256 252 251 244 235 233 238 241 235 240 236 250 256 259 184 232 238 229 225 224 224 223 229 232 231 227 233 228 221 217 201 212 210 210 210 206 218 231 235 241